OBJECT B (45176 NORAD) Tracking and Keplerian Element Data

This shows tracking and keplerian element data for the satellite.

Feedback or suggestion? Click here.




ElementValue
Catalog45176
NameOBJECT B
Epoch Orbit15
Epoch Day47.76166641
Epoch Year2020
RAAN229.3912
Inclination51.6205
Eccentricity0.003329
Argument of Perigee21.1916
Mean Anonmoly54.0592
Mean Motion16.36693095
Decay Rate-3.896E-05
L11 45176U 20011B 20047.76166641 -.00003896 12318-4 00000-0 0 9993
L22 45176 51.6205 229.3912 0033290 21.1916 54.0592 16.36693095 158

Live tracking and technical data element details for OBJECT B (NORAD 45176). OBJECT B can be tracked NOW for your location showing map with azimuth and elevation plus other details from your city location.

Track the satellite on the map from your city or location and see movement details for azimuth, elevation, latitude, longitude, range, height, and movement on the map or in text.







IsCatalogInMostPopularTable: catalog: 45176, numindb: 10
Update: records affected: 1



GetName: 45176 OBJECT B

Hit Count: updated at: Mon, 06 Apr 2020 12:13:39 GMT